• In Hungary
  • List of Countries
  • For 7 days
  • Water Temperature
  • Satellite Maps
  • Weather Map
  • News
  • Weather Widgets
  • user-avatar
    Login

    Hourly Weather Santa Lucía

    Today, 21 June, Thursday

    Time Temperature Precipitation Wind Pressure Humidity
    00:00 +23°C° 1.3 mm 0 mps 732 mmHg 93%
    01:00 +23°C° 0.1 mm 0 mps 732 mmHg 93%
    02:00 +23°C° 0.1 mm 0 mps 732 mmHg 94%
    03:00 +23°C° 0.1 mm 0 mps 731 mmHg 94%
    04:00 +23°C° 0 mm 0 mps 731 mmHg 93%
    05:00 +23°C° 0 mm 0 mps 732 mmHg 93%
    06:00 +23°C° 0 mm 0 mps 732 mmHg 92%
    07:00 +25°C° 0 mm 0 mps 732 mmHg 85%
    08:00 +29°C° 0 mm 1 mps 732 mmHg 78%
    09:00 +31°C° 0 mm 1 mps 733 mmHg 71%
    10:00 +31°C° 0.2 mm 1 mps 732 mmHg 67%
    11:00 +32°C° 0.2 mm 1 mps 732 mmHg 64%
    12:00 +34°C° 0.2 mm 2 mps 732 mmHg 60%
    13:00 +34°C° 1 mm 2 mps 731 mmHg 61%
    14:00 +34°C° 1 mm 2 mps 731 mmHg 61%
    15:00 +34°C° 1 mm 2 mps 730 mmHg 62%
    16:00 +32°C° 1.1 mm 2 mps 730 mmHg 68%
    17:00 +30°C° 1.1 mm 2 mps 730 mmHg 73%
    18:00 +29°C° 1.1 mm 1 mps 730 mmHg 79%
    19:00 +28°C° 1.1 mm 1 mps 731 mmHg 84%
    20:00 +27°C° 1.1 mm 1 mps 731 mmHg 88%
    21:00 +24°C° 1.1 mm 0 mps 732 mmHg 93%
    22:00 +23°C° 0.5 mm 0 mps 732 mmHg 94%
    23:00 +23°C° 0.5 mm 0 mps 732 mmHg 94%

    Tomorrow, 22 June, Friday

    Time Temperature Precipitation Wind Pressure Humidity
    00:00 +23°C° 0.5 mm 0 mps 732 mmHg 95%
    01:00 +23°C° 0 mm 0 mps 732 mmHg 95%
    02:00 +23°C° 0 mm 0 mps 731 mmHg 95%
    03:00 +24°C° 0 mm 1 mps 731 mmHg 95%
    04:00 +24°C° 0 mm 1 mps 731 mmHg 94%
    05:00 +25°C° 0 mm 1 mps 731 mmHg 93%
    06:00 +25°C° 0 mm 1 mps 731 mmHg 92%
    07:00 +27°C° 0 mm 1 mps 732 mmHg 85%
    08:00 +27°C° 0 mm 0 mps 732 mmHg 77%
    09:00 +29°C° 0 mm 0 mps 733 mmHg 69%
    10:00 +32°C° 0.4 mm 1 mps 732 mmHg 67%
    11:00 +33°C° 0.4 mm 1 mps 732 mmHg 64%
    12:00 +34°C° 0.4 mm 1 mps 732 mmHg 61%
    13:00 +34°C° 1.4 mm 1 mps 731 mmHg 61%
    14:00 +33°C° 1.4 mm 1 mps 730 mmHg 62%
    15:00 +33°C° 1.4 mm 1 mps 730 mmHg 63%
    16:00 +32°C° 1.1 mm 1 mps 730 mmHg 68%
    17:00 +31°C° 1.1 mm 1 mps 730 mmHg 73%
    18:00 +29°C° 1.1 mm 1 mps 730 mmHg 78%
    19:00 +28°C° 1.8 mm 1 mps 731 mmHg 83%
    20:00 +27°C° 1.8 mm 1 mps 731 mmHg 87%
    21:00 +24°C° 1.8 mm 0 mps 732 mmHg 92%
    22:00 +26°C° 1 mm 1 mps 732 mmHg 92%
    23:00 +25°C° 1 mm 1 mps 732 mmHg 93%

    Day after tomorrow, 23 June, Saturday

    Time Temperature Precipitation Wind Pressure Humidity
    00:00 +25°C° 1 mm 1 mps 732 mmHg 93%
    01:00 +25°C° 0.2 mm 1 mps 731 mmHg 93%
    02:00 +25°C° 0.2 mm 1 mps 731 mmHg 93%
    03:00 +25°C° 0.2 mm 1 mps 730 mmHg 93%
    04:00 +25°C° 0 mm 1 mps 731 mmHg 92%
    05:00 +25°C° 0 mm 1 mps 731 mmHg 92%
    06:00 +25°C° 0 mm 1 mps 731 mmHg 91%
    07:00 +27°C° 0.3 mm 1 mps 731 mmHg 85%
    08:00 +29°C° 0.3 mm 1 mps 732 mmHg 78%
    09:00 +31°C° 0.3 mm 1 mps 732 mmHg 72%
    10:00 +32°C° 0.9 mm 1 mps 732 mmHg 67%
    11:00 +34°C° 0.9 mm 1 mps 732 mmHg 62%
    12:00 +35°C° 0.9 mm 1 mps 732 mmHg 57%
    13:00 +35°C° 2.1 mm 1 mps 731 mmHg 59%
    14:00 +34°C° 2.1 mm 1 mps 730 mmHg 61%
    15:00 +34°C° 2.1 mm 1 mps 730 mmHg 62%
    16:00 +32°C° 2 mm 2 mps 730 mmHg 70%
    17:00 +30°C° 2 mm 2 mps 730 mmHg 78%
    18:00 +28°C° 2 mm 2 mps 730 mmHg 85%
    19:00 +27°C° 1.7 mm 1 mps 731 mmHg 88%
    20:00 +27°C° 1.7 mm 1 mps 731 mmHg 90%
    21:00 +26°C° 1.7 mm 1 mps 732 mmHg 93%
    22:00 +26°C° 0.3 mm 1 mps 732 mmHg 93%
    23:00 +26°C° 0.3 mm 1 mps 732 mmHg 93%

    24 June, Sunday

    Time Temperature Precipitation Wind Pressure Humidity
    00:00 +25°C° 0.3 mm 1 mps 731 mmHg 93%
    01:00 +25°C° 0.1 mm 1 mps 731 mmHg 93%
    02:00 +25°C° 0.1 mm 1 mps 731 mmHg 94%
    03:00 +25°C° 0.1 mm 1 mps 730 mmHg 94%
    04:00 +25°C° 0 mm 1 mps 731 mmHg 94%
    05:00 +25°C° 0 mm 1 mps 731 mmHg 93%
    06:00 +25°C° 0 mm 1 mps 731 mmHg 93%
    07:00 +27°C° 0 mm 1 mps 731 mmHg 83%
    08:00 +30°C° 0 mm 1 mps 732 mmHg 73%
    09:00 +32°C° 0 mm 1 mps 732 mmHg 62%
    10:00 +33°C° 0.4 mm 1 mps 732 mmHg 59%
    11:00 +34°C° 0.4 mm 1 mps 731 mmHg 56%
    12:00 +36°C° 0.4 mm 2 mps 731 mmHg 53%
    13:00 +36°C° 1.5 mm 2 mps 730 mmHg 54%
    14:00 +36°C° 1.5 mm 2 mps 730 mmHg 56%
    15:00 +35°C° 1.5 mm 2 mps 729 mmHg 58%
    16:00 +33°C° 2.1 mm 1 mps 730 mmHg 64%
    17:00 +31°C° 2.1 mm 1 mps 730 mmHg 70%
    18:00 +29°C° 2.1 mm 1 mps 730 mmHg 76%
    19:00 +28°C° 1.7 mm 1 mps 731 mmHg 80%
    20:00 +27°C° 1.7 mm 1 mps 731 mmHg 84%
    21:00 +26°C° 1.7 mm 1 mps 732 mmHg 88%
    22:00 +26°C° 0.2 mm 1 mps 732 mmHg 89%
    23:00 +26°C° 0.2 mm 1 mps 732 mmHg 90%

    25 June, Monday

    Time Temperature Precipitation Wind Pressure Humidity
    00:00 +25°C° 0.2 mm 1 mps 731 mmHg 90%
    01:00 +25°C° 0.1 mm 1 mps 731 mmHg 90%
    02:00 +25°C° 0.1 mm 1 mps 731 mmHg 90%
    03:00 +24°C° 0.1 mm 2 mps 730 mmHg 91%
    04:00 +24°C° 0 mm 2 mps 731 mmHg 90%
    05:00 +24°C° 0 mm 2 mps 731 mmHg 90%
    06:00 +24°C° 0 mm 2 mps 731 mmHg 90%
    07:00 +27°C° 0 mm 2 mps 732 mmHg 80%
    08:00 +29°C° 0 mm 2 mps 732 mmHg 70%
    09:00 +32°C° 0 mm 2 mps 733 mmHg 59%
    10:00 +34°C° 0 mm 2 mps 732 mmHg 54%
    11:00 +35°C° 0 mm 2 mps 732 mmHg 48%
    12:00 +36°C° 0 mm 2 mps 732 mmHg 42%
    13:00 +36°C° 0 mm 2 mps 731 mmHg 42%
    14:00 +36°C° 0 mm 3 mps 731 mmHg 42%
    15:00 +36°C° 0 mm 3 mps 730 mmHg 43%
    16:00 +34°C° 0.2 mm 2 mps 731 mmHg 51%
    17:00 +32°C° 0.2 mm 2 mps 731 mmHg 60%
    18:00 +30°C° 0.2 mm 1 mps 731 mmHg 69%
    19:00 +29°C° 0.4 mm 1 mps 731 mmHg 73%
    20:00 +27°C° 0.4 mm 1 mps 732 mmHg 78%
    21:00 +26°C° 0.4 mm 1 mps 732 mmHg 82%
    22:00 +26°C° 0.1 mm 1 mps 732 mmHg 82%
    23:00 +26°C° 0.1 mm 1 mps 732 mmHg 82%

    26 June, Tuesday

    Time Temperature Precipitation Wind Pressure Humidity
    00:00 +26°C° 0.1 mm 1 mps 732 mmHg 83%
    01:00 +26°C° 0 mm 2 mps 731 mmHg 83%
    02:00 +25°C° 0 mm 2 mps 731 mmHg 84%
    03:00 +25°C° 0 mm 2 mps 731 mmHg 84%
    04:00 +25°C° 0 mm 2 mps 731 mmHg 84%
    05:00 +25°C° 0 mm 2 mps 731 mmHg 84%
    06:00 +25°C° 0 mm 2 mps 732 mmHg 83%
    07:00 +27°C° 0.1 mm 1 mps 732 mmHg 76%
    08:00 +30°C° 0.1 mm 1 mps 732 mmHg 68%
    09:00 +32°C° 0.1 mm 1 mps 733 mmHg 61%
    10:00 +32°C° 0.3 mm 1 mps 732 mmHg 59%
    11:00 +34°C° 0.3 mm 2 mps 732 mmHg 57%
    12:00 +35°C° 0.3 mm 2 mps 732 mmHg 54%
    13:00 +34°C° 0.5 mm 2 mps 731 mmHg 57%
    14:00 +34°C° 0.5 mm 2 mps 731 mmHg 60%
    15:00 +32°C° 0.5 mm 2 mps 730 mmHg 63%
    16:00 +31°C° 0.7 mm 2 mps 731 mmHg 67%
    17:00 +30°C° 0.7 mm 1 mps 731 mmHg 71%
    18:00 +29°C° 0.7 mm 1 mps 731 mmHg 76%
    19:00 +28°C° 0.4 mm 1 mps 732 mmHg 79%
    20:00 +27°C° 0.4 mm 1 mps 732 mmHg 82%
    21:00 +26°C° 0.4 mm 1 mps 732 mmHg 86%
    22:00 +26°C° 0.1 mm 1 mps 732 mmHg 86%
    23:00 +26°C° 0.1 mm 1 mps 732 mmHg 87%
    Show more